User: anonymous   Login
Location: Mactaquac Provincial Park
(45.9573°N, 66.8897°W)
Time: 02:11:26
(UTC-04:00)
Language:

Cosmos 1867 - Orbit

View from above orbital plane
View from above orbital plane
View from above satellite
View from above satellite

Ground track
Ground track

The orbit data is extracted from the following two-line orbital elements,

1 18187U 87060A   14332.48447457  .00000034  00000-0  50718-4 0  2313
2 18187 065.0116 316.1864 0013684 269.8188 090.1328 14.31036778430672
Epoch (UTC): 28 November 2014 11:37:38
Eccentricity: 0.0013684
inclination: 65.0116°
perigee height: 778 km
apogee height: 798 km
right ascension of ascending node: 316.1864°
argument of perigee: 269.8188°
revolutions per day: 14.31036778
mean anomaly at epoch: 90.1328°
orbit number at epoch: 43067

The dashed part of the orbit path shows where the satellite is in the earth's shadow,  

DLR